Regional Weather Roundup
Issued by NWS Cleveland, OH

Home | Current Version | Previous Version | Text Only | Print | Product List | Glossary Off
Versions: 1 2 3 4 5 6 7 8 9 10 11 12 13 14 15 16 17 18 19 20 21 22 23 24 25 26 27 28 29 30 31 32 33 34 35 36 37 38 39 40 41 42 43 44 45 46 47 48 49 50

000
ASUS41 KCLE 232312
RWRCLE
OHIO REGIONAL WEATHER ROUNDUP
NATIONAL WEATHER SERVICE WILMINGTON, OH
600 PM EST TUE JAN 23 2018

NOTE: "FAIR" INDICATES FEW OR NO CLOUDS BELOW 12,000 FEET WITH NO
SIGNIFICANT WEATHER AND/OR OBSTRUCTIONS TO VISIBILITY.

OHZ001>008-015>018-024>027-034-035-043-044-240000-
   NORTHWEST OHIO

CITY           SKY/WX    TMP DP  RH WIND       PRES   REMARKS
DEFIANCE       CLOUDY    32  25  75 W9G21     29.91R WCI  24
FINDLAY        CLOUDY    34  27  75 W23G32    29.88R WCI  22
TOLEDO EXPRESS CLOUDY    33  27  78 W21G38    29.85R WCI  21
TOLEDO EXEC    CLOUDY    34  27  75 W20G26    29.85R WCI  23
LIMA           CLOUDY    32  30  92 W28G36    29.91R WCI  18
$$

OHZ009>014-019>023-028>033-038-089-240000-
   NORTHEAST OHIO

CITY           SKY/WX    TMP DP  RH WIND       PRES   REMARKS
CLE-HOPKINS    CLOUDY    36  31  82 W20G29    29.83R
CLE-LAKEFRONT  CLOUDY    35  30  82 W26G33    29.80R WCI  22
CUY CO. ARPT   CLOUDY    37  32  81 W28G37    29.79R
LORAIN-ELYRIA  CLOUDY    34  27  75 W15G26    29.83R WCI  24
ASHTABULA      CLOUDY    35  30  82 W26G43    29.75R WCI  22
AKRON-CANTON   LGT SNOW  35  31  85 W14       29.81R WCI  26
WOOSTER        LGT SNOW  34  32  92 W20G26    29.83R FOG     WCI  23
MANSFIELD      CLOUDY    33  31  92 W15G25    29.85R WCI  23
YOUNGSTOWN     CLOUDY    36  32  85 SW17G26   29.75R
$$

OHZ042-051>053-060>062-070>072-077>081-240000-
  SOUTHWEST OHIO

CITY           SKY/WX    TMP DP  RH WIND       PRES   REMARKS
CINC-COVINGTON CLOUDY    38  33  82 W14G23    29.99R
CINC-LUNKEN    CLOUDY    40  32  73 SW10      30.01R
HAMILTON       CLOUDY    38  34  85 W10       30.00R
DAYTON         CLOUDY    35  33  92 W16       29.95R WCI  25
WRIGHT-PAT AFB CLOUDY    36  34  93 W9        29.96R
DAYTON GENERAL CLOUDY    36  33  89 W8        29.96R
WILMINGTON     CLOUDY    37  33  85 W18       29.95R
$$

OHZ036-037-039>041-045>050-054>059-063>069-073>076-082>088-240000-
  CENTRAL AND SOUTHEAST OHIO

CITY           SKY/WX    TMP DP  RH WIND       PRES   REMARKS
COLUMBUS       LGT RAIN  36  34  92 W17G24    29.91R FOG
OSU AIRPORT    CLOUDY    36  33  89 W16G25    29.92R
BOLTON FIELD   LGT RAIN  36  34  93 W8G17     29.92R
RICKENBACK AFB CLOUDY    37  35  90 W17G24    29.92R
NEWARK         CLOUDY    38  33  82 W16G24    29.89R
MARION         CLOUDY    34  29  82 W21G32    29.90R WCI  22
LANCASTER      CLOUDY    38  33  82 W14G22    29.92R
ZANESVILLE     CLOUDY    39  32  76 W15G30    29.89R
NEW PHILLY     CLOUDY    39  31  72 W9G23     29.86R
$$




USA.gov is the U.S. government's official web portal to all federal, state and local government web resources and services.